TimeCDT,TemperatureF,Dew PointF,Humidity,Sea Level PressureIn,VisibilityMPH,Wind Direction,Wind SpeedMPH,Gust SpeedMPH,PrecipitationIn,Events,Conditions,WindDirDegrees,DateUTC
12:15 AM,48.2,44.6,87,30.03,10.0,East,3.5,-,N/A,,Clear,80,2013-07-21 05:15:00
12:35 AM,46.4,44.6,93,30.03,10.0,East,5.8,-,N/A,,Clear,80,2013-07-21 05:35:00
12:55 AM,48.2,44.6,87,30.03,10.0,Calm,Calm,-,N/A,,Clear,0,2013-07-21 05:55:00
1:15 AM,48.2,44.6,87,30.03,10.0,East,4.6,-,N/A,,Clear,80,2013-07-21 06:15:00
1:35 AM,46.4,42.8,87,30.02,10.0,East,3.5,-,N/A,,Clear,90,2013-07-21 06:35:00
1:55 AM,46.4,44.6,93,30.02,10.0,East,3.5,-,N/A,,Clear,80,2013-07-21 06:55:00
2:15 AM,46.4,44.6,93,30.01,10.0,Calm,Calm,-,N/A,,Clear,0,2013-07-21 07:15:00
2:35 AM,46.4,42.8,87,30.02,10.0,Calm,Calm,-,N/A,,Clear,0,2013-07-21 07:35:00
2:55 AM,44.6,42.8,93,30.02,10.0,Calm,Calm,-,N/A,,Clear,0,2013-07-21 07:55:00
3:15 AM,44.6,42.8,93,30.01,10.0,Calm,Calm,-,N/A,,Clear,0,2013-07-21 08:15:00
3:35 AM,44.6,42.8,93,30.00,10.0,ENE,4.6,-,N/A,,Clear,70,2013-07-21 08:35:00
3:55 AM,46.4,42.8,87,30.00,10.0,Calm,Calm,-,N/A,,Clear,0,2013-07-21 08:55:00
4:15 AM,44.6,41.0,87,30.01,8.0,Calm,Calm,-,N/A,,Clear,0,2013-07-21 09:15:00
4:35 AM,44.6,42.8,93,30.01,10.0,Calm,Calm,-,N/A,,Clear,0,2013-07-21 09:35:00
4:55 AM,42.8,41.0,93,30.01,10.0,Calm,Calm,-,N/A,,Clear,0,2013-07-21 09:55:00
5:15 AM,42.8,39.2,87,30.01,10.0,Calm,Calm,-,N/A,,Clear,0,2013-07-21 10:15:00
5:35 AM,44.6,41.0,87,30.01,10.0,Calm,Calm,-,N/A,,Clear,0,2013-07-21 10:35:00
5:55 AM,42.8,39.2,87,30.01,10.0,Calm,Calm,-,N/A,,Clear,0,2013-07-21 10:55:00
6:15 AM,44.6,41.0,87,30.00,10.0,Calm,Calm,-,N/A,,Clear,0,2013-07-21 11:15:00
6:35 AM,46.4,42.8,87,30.01,10.0,Calm,Calm,-,N/A,,Clear,0,2013-07-21 11:35:00
6:55 AM,48.2,44.6,87,30.01,10.0,Calm,Calm,-,N/A,,Clear,0,2013-07-21 11:55:00
7:15 AM,53.6,48.2,82,30.01,10.0,SE,5.8,-,N/A,,Clear,130,2013-07-21 12:15:00
7:35 AM,57.2,48.2,72,30.01,10.0,SE,5.8,-,N/A,,Clear,130,2013-07-21 12:35:00
7:55 AM,57.2,48.2,72,30.01,10.0,SE,4.6,-,N/A,,Clear,140,2013-07-21 12:55:00
8:15 AM,59.0,46.4,63,30.01,10.0,SE,6.9,-,N/A,,Clear,140,2013-07-21 13:15:00
8:35 AM,60.8,48.2,63,30.01,10.0,SSE,4.6,-,N/A,,Clear,150,2013-07-21 13:35:00
8:55 AM,60.8,48.2,63,30.01,10.0,SE,6.9,-,N/A,,Clear,140,2013-07-21 13:55:00
9:15 AM,60.8,48.2,63,30.01,10.0,South,4.6,-,N/A,,Clear,170,2013-07-21 14:15:00
9:35 AM,62.6,50.0,63,30.00,10.0,South,5.8,-,N/A,,Clear,190,2013-07-21 14:35:00
9:55 AM,62.6,51.8,68,30.00,10.0,South,5.8,-,N/A,,Clear,180,2013-07-21 14:55:00
10:15 AM,64.4,51.8,64,30.00,10.0,Calm,Calm,-,N/A,,Clear,0,2013-07-21 15:15:00
10:35 AM,64.4,50.0,59,29.99,10.0,Calm,Calm,-,N/A,,Clear,0,2013-07-21 15:35:00
10:55 AM,64.4,50.0,59,29.99,10.0,Calm,Calm,-,N/A,,Scattered Clouds,0,2013-07-21 15:55:00
11:15 AM,64.4,50.0,59,29.99,10.0,Calm,Calm,-,N/A,,Partly Cloudy,0,2013-07-21 16:15:00
11:35 AM,66.2,50.0,56,29.99,10.0,SSE,4.6,-,N/A,,Partly Cloudy,160,2013-07-21 16:35:00
11:55 AM,66.2,51.8,60,29.98,10.0,Calm,Calm,-,N/A,,Clear,0,2013-07-21 16:55:00
12:15 PM,66.2,51.8,60,29.98,10.0,SE,3.5,-,N/A,,Clear,140,2013-07-21 17:15:00
12:35 PM,68.0,50.0,52,29.97,10.0,SSE,3.5,-,N/A,,Partly Cloudy,160,2013-07-21 17:35:00
12:55 PM,68.0,51.8,56,29.96,10.0,NE,4.6,-,N/A,,Partly Cloudy,40,2013-07-21 17:55:00
1:15 PM,68.0,50.0,52,29.96,10.0,Calm,Calm,-,N/A,,Partly Cloudy,0,2013-07-21 18:15:00
1:35 PM,69.8,55.4,60,29.95,10.0,NNE,6.9,-,N/A,,Mostly Cloudy,30,2013-07-21 18:35:00
1:55 PM,69.8,53.6,56,29.95,10.0,NNE,4.6,-,N/A,,Scattered Clouds,20,2013-07-21 18:55:00
2:15 PM,69.8,53.6,56,29.94,10.0,North,9.2,-,N/A,,Clear,360,2013-07-21 19:15:00
2:35 PM,69.8,51.8,53,29.93,10.0,NNE,6.9,-,N/A,,Clear,20,2013-07-21 19:35:00
2:55 PM,69.8,53.6,56,29.92,10.0,North,8.1,-,N/A,,Clear,10,2013-07-21 19:55:00
3:15 PM,69.8,53.6,56,29.92,10.0,NE,6.9,-,N/A,,Clear,40,2013-07-21 20:15:00
3:35 PM,69.8,53.6,56,29.92,10.0,North,9.2,-,N/A,,Clear,350,2013-07-21 20:35:00
3:55 PM,69.8,51.8,53,29.92,10.0,North,8.1,-,N/A,,Clear,350,2013-07-21 20:55:00
4:15 PM,69.8,51.8,53,29.91,10.0,NNE,5.8,-,N/A,,Clear,20,2013-07-21 21:15:00
4:35 PM,69.8,53.6,56,29.90,10.0,NNE,5.8,-,N/A,,Clear,30,2013-07-21 21:35:00
4:55 PM,69.8,53.6,56,29.90,10.0,NE,6.9,-,N/A,,Clear,40,2013-07-21 21:55:00
5:15 PM,69.8,53.6,56,29.90,10.0,NNE,6.9,-,N/A,,Clear,20,2013-07-21 22:15:00
5:35 PM,69.8,53.6,56,29.89,10.0,North,8.1,-,N/A,,Clear,360,2013-07-21 22:35:00
5:55 PM,68.0,53.6,60,29.89,10.0,NNE,6.9,-,N/A,,Clear,20,2013-07-21 22:55:00
6:15 PM,68.0,53.6,60,29.89,10.0,NE,8.1,-,N/A,,Clear,40,2013-07-21 23:15:00
6:35 PM,66.2,51.8,60,29.88,10.0,NNE,3.5,-,N/A,,Clear,30,2013-07-21 23:35:00
6:55 PM,66.2,53.6,64,29.87,10.0,NNE,5.8,-,N/A,,Clear,30,2013-07-21 23:55:00
7:15 PM,66.2,53.6,64,29.88,10.0,NNW,4.6,-,N/A,,Clear,340,2013-07-22 00:15:00
7:35 PM,66.2,53.6,64,29.87,10.0,Calm,Calm,-,N/A,,Clear,0,2013-07-22 00:35:00
7:55 PM,64.4,53.6,68,29.87,10.0,Calm,Calm,-,N/A,,Partly Cloudy,0,2013-07-22 00:55:00
8:15 PM,64.4,53.6,68,29.87,10.0,Calm,Calm,-,N/A,,Scattered Clouds,0,2013-07-22 01:15:00
8:35 PM,62.6,55.4,77,29.87,10.0,Calm,Calm,-,N/A,,Partly Cloudy,0,2013-07-22 01:35:00
8:55 PM,62.6,53.6,72,29.86,10.0,Calm,Calm,-,N/A,,Clear,0,2013-07-22 01:55:00
9:15 PM,60.8,55.4,82,29.87,10.0,Calm,Calm,-,N/A,,Clear,0,2013-07-22 02:15:00
9:35 PM,57.2,53.6,88,29.88,10.0,Calm,Calm,-,N/A,,Clear,0,2013-07-22 02:35:00
9:55 PM,59.0,55.4,88,29.89,10.0,Calm,Calm,-,N/A,,Clear,0,2013-07-22 02:55:00
10:15 PM,57.2,53.6,88,29.89,10.0,Calm,Calm,-,N/A,,Clear,0,2013-07-22 03:15:00
10:35 PM,62.6,57.2,82,29.89,10.0,South,6.9,-,N/A,,Clear,190,2013-07-22 03:35:00
10:55 PM,62.6,55.4,77,29.88,10.0,South,6.9,-,N/A,,Clear,170,2013-07-22 03:55:00
11:15 PM,62.6,55.4,77,29.87,10.0,SSE,4.6,-,N/A,,Clear,160,2013-07-22 04:15:00
11:35 PM,62.6,57.2,82,29.86,10.0,South,4.6,-,N/A,,Clear,190,2013-07-22 04:35:00
11:55 PM,62.6,55.4,77,29.86,10.0,SSE,4.6,-,N/A,,Clear,160,2013-07-22 04:55:00